Regional Weather Roundup
Issued by NWS

Home | Current Version | Previous Version | Text Only | Print | Product List | Glossary Off
Versions: 1 2 3 4 5 6 7 8 9 10 11 12 13 14 15 16 17 18 19 20 21 22 23 24 25 26 27

000
ASUS45 KBOI 220710
RWRID

IDAHO REGIONAL WEATHER ROUNDUP
NATIONAL WEATHER SERVICE BOISE ID
1200 AM MST SUN JAN 22 2017

NOTE: "FAIR" INDICATES FEW OR NO CLOUDS BELOW 12000 FEET
WITH NO SIGNIFICANT WEATHER AND/OR OBSTRUCTIONS TO VISIBILITY

IDZ012-014-220800-
SOUTHWEST IDAHO


CITY           SKY/WX    TMP DP  RH WIND       PRES   REMARKS
BOISE          MOCLDY    37  30  75 SE13      29.81R WCI  29
CALDWELL       MOCLDY    36  30  79 SE15      29.82R WCI  27
MOUNTAIN HOME  CLEAR     28  28 100 E12       29.84R WCI  18
$$

IDZ016-017-220800-
SOUTHCENTRAL IDAHO


CITY           SKY/WX    TMP DP  RH WIND       PRES   REMARKS
BURLEY         CLOUDY    34  24  67 SW8       29.86R WCI  27
JEROME         CLOUDY    32  25  75 E6        29.86R WCI  26
TWIN FALLS     CLOUDY    34  23  64 S15       29.84R WCI  24
$$

IDZ019>023-220800-
SOUTHEAST IDAHO


CITY           SKY/WX    TMP DP  RH WIND       PRES   REMARKS
IDAHO FALLS    CLEAR     22  20  92 SW16      29.86R WCI   8
POCATELLO      CLOUDY    34  24  67 S14       29.87R WCI  25
REXBURG        MOCLDY    25  23  92 SW9       29.84R WCI  15
$$

IDZ006-010-011-018-031-032-220800-
CENTRAL IDAHO MOUNTAINS


CITY           SKY/WX    TMP DP  RH WIND       PRES   REMARKS
MCCALL         CLOUDY    29  26  89 SE6       29.73R WCI  23
HAILEY         CLOUDY    21  18  86 NW6       29.86R WCI  14
STANLEY          N/A     19  15  84 N5        29.77R WCI  12
SALMON         CLOUDY     9   7  92 CALM      29.83R
CHALLIS        CLOUDY     8   7  95 CALM      29.81R
$$

IDZ002-004-006-007-026-220800-
NORTHERN IDAHO


CITY           SKY/WX    TMP DP  RH WIND       PRES   REMARKS
LEWISTON       CLOUDY    37  31  78 SE9       29.74R WCI  30
LOWELL           N/A     32  30  92 CALM      29.82R
COEUR D`ALENE  CLOUDY    33  32  96 NE9       29.72R WCI  25
MULLAN PASS    CLOUDY    26  22  84 CALM      29.65R
$$




USA.gov is the U.S. government's official web portal to all federal, state and local government web resources and services.